Tracking 19832 objects as of 26-Aug-2019
HD Live streaming from Space Station
objects crossing your sky now

COSMOS 1823 DEB

Track COSMOS 1823 DEB now!
10-day predictions


NORAD ID: 29357
Int'l Code: 1987-020DY
Perigee: 1,158.0 km
Apogee: 1,497.1 km
Inclination: 73.8 °
Period: 112.0 minutes
Semi major axis: 7698 km
RCS: 0.003 m2 (small)
Launch date: February 20, 1987
Source: Commonwealth of Independent States (former USSR) (CIS)
Launch site: PLESETSK MISSILE AND SPACE COMPLEX (PKMTR)

Note: This is SATELLITE DEBRIS
aabbcc
Your satellite tracking list
Your tracking list is empty




NASA's NSSDC Master Catalog

Two Line Element Set (TLE):
1 29357U 87020DY  19236.33915605  .00000053  00000-0  26038-3 0  9996
2 29357  73.7900  95.6217 0220180 115.3766 356.9212 12.85255562714557
Source of the keplerian elements: AFSPC